This demonstration page uses our WeatherBlox Daily Observations layout. Learn more.

Left ArrowRight Arrow

38.80484, -77.04692

Hourly Observations for September 12, 2020

Temp ( °F °C ) Dew Point ( °F °C ) Humidity (%) Winds ( mph kmh ) Pressure ( in mb ) Visibility ( mi km ) Precip ( " mm )
12:14 am 00:14 Cloudy 73 22.8 66 18.9 79 79 NE 8 13 30.20 1023 10 16 0.00 0.00
12:52 am 00:52 Cloudy 73 22.8 66 18.9 79 79 NE 8 13 30.19 1023 10 16 0.00 0.00
1:52 am 01:52 Cloudy 73 22.8 67 19.4 81 81 NE 3 6 30.19 1023 10 16 N/A
2:52 am 02:52 Cloudy 73 22.8 68 20 84 84 NE 7 11 30.19 1022 10 16 N/A
3:52 am 03:52 Cloudy 72 22.2 67 19.4 84 84 NNE 5 7 30.18 1022 10 16 N/A
4:52 am 04:52 Cloudy 72 22.2 68 20 87 87 NE 9 15 30.19 1022 10 16 N/A
5:52 am 05:52 Cloudy 72 22.2 68 20 87 87 ENE 8 13 30.19 1023 10 16 N/A
6:24 am 06:24 Cloudy 71 21.7 68 20 90 90 ENE 8 13 30.20 1023 10 16 N/A
6:52 am 06:52 Cloudy 71 21.7 67 19.4 87 87 ENE 9 15 30.21 1023 10 16 N/A
7:17 am 07:17 Cloudy 71 21.7 67 19.4 87 87 E 10 17 30.21 1023 10 16 N/A
7:52 am 07:52 Cloudy 71 21.7 66 18.9 84 84 ENE 9 15 30.22 1023 10 16 N/A
8:21 am 08:21 Cloudy 70 21.1 64 17.8 82 82 E 13 20 30.23 1024 10 16 N/A
8:52 am 08:52 Cloudy 70 21.1 65 18.3 84 84 NE 8 13 30.24 1024 10 16 N/A
8:57 am 08:57 Cloudy 70 21.1 65 18.3 84 84 NE 9 15 30.24 1024 10 16 N/A
9:24 am 09:24 Cloudy 69 20.6 66 18.9 90 90 NE 10 17 30.25 1024 10 16 N/A
9:52 am 09:52 Cloudy 69 20.6 65 18.3 87 87 NE 8 13 30.25 1024 10 16 N/A
10:52 am 10:52 Cloudy 71 21.7 64 17.8 79 79 ENE 9 15 30.25 1025 10 16 N/A
10:58 am 10:58 Cloudy 71 21.7 64 17.8 79 79 E 8 13 30.26 1025 10 16 N/A
11:25 am 11:25 Cloudy 72 22.2 63 17.2 73 73 E 14 22 30.26 1025 10 16 N/A
11:32 am 11:32 Cloudy 72 22.2 63 17.2 73 73 E 12 19 30.26 1025 10 16 N/A
11:36 am 11:36 Cloudy 72 22.2 62 16.7 71 71 E 10 17 30.26 1025 10 16 N/A
11:52 am 11:52 Cloudy 72 22.2 62 16.7 71 71 ESE 10 17 30.26 1025 10 16 N/A
12:45 pm 12:45 Cloudy 72 22.2 62 16.7 71 71 ESE 12 19 30.25 1024 10 16 N/A
12:52 pm 12:52 Cloudy 72 22.2 61 16.1 68 68 ESE 10 17 30.25 1024 10 16 N/A
1:52 pm 13:52 Cloudy 73 22.8 62 16.7 69 69 ESE 8 13 30.24 1024 10 16 N/A
2:52 pm 14:52 Cloudy 74 23.3 62 16.7 67 67 E 12 19 30.22 1023 10 16 N/A
3:52 pm 15:52 Mostly Cloudy 75 23.9 61 16.1 62 62 E 10 17 30.21 1023 10 16 N/A
4:52 pm 16:52 Mostly Cloudy 74 23.3 61 16.1 64 64 E 10 17 30.19 1022 10 16 N/A
5:52 pm 17:52 Mostly Cloudy 74 23.3 61 16.1 64 64 E 9 15 30.19 1022 10 16 N/A
6:52 pm 18:52 Partly Cloudy 72 22.2 60 15.6 66 66 E 8 13 30.18 1022 10 16 N/A
7:52 pm 19:52 Mostly Clear 70 21.1 59 15 68 68 E 7 11 30.19 1022 10 16 N/A
8:52 pm 20:52 Mostly Clear 69 20.6 59 15 70 70 E 9 15 30.22 1023 10 16 N/A
9:52 pm 21:52 Clear 68 20 59 15 73 73 E 8 13 30.22 1024 10 16 N/A
10:52 pm 22:52 Mostly Clear 67 19.4 59 15 76 76 E 9 15 30.22 1024 10 16 N/A
11:52 pm 23:52 Mostly Clear 67 19.4 58 14.4 73 73 E 8 13 30.22 1023 10 16 N/A

Powered by AerisWeather